COSMOS 1275 DEB, 12722

Orbit data source: Space-Track

COSMOS 1275 DEB, 12722 is space debris in LEO originally from a launch on Thu, 04 Jun 1981 UTC launched from the Plesetsk Missile And Space Complex (PKMTR). Debris objects in space refer to the collection of defunct objects orbiting the Earth. Examples of debris include non-operational satellites, rocket bodies, and fragments generated from explosions, collisions, or faulty payload assembly.

Loading next visibility...
Identifier
12722, 1981-053BP
Orbit
LEO
Country
Flag of CISCIS
Related business
Manufacturer
Unknown
Mission
Spacecraft
Bus & Motor
Unknown
Mass
Unknown
Launch date (UTC)
1981-06-04 (44 years ago)
Launch vehicle
Unknown
Launch site
Plesetsk Missile And Space Complex (PKMTR)
Object type
Payload
Rocket body
Debris
Shape & HBR
Unknown shape, 0.1 m
Radar Cross Section
Small (<0.1 m²)

Expand to show TLE details & history
Last TLE update: 11 hours ago

TLE from 11 hours ago
0 COSMOS 1275 DEB
1 12722U 81053BP  25302.33497046  .00001113  00000-0  88887-3 0  9997
2 12722  82.9001 248.9391 0064207 152.5642 207.8937 13.89158482226810
Epoch: 2025-10-29T08:02Z
TLE epoch observation values (Epoch: 2025-10-29T08:02:21.447Z)
Latitude
-0.00002°
Longitude
90.44015°
Altitude
976.054 km
Speed
7.343 km/s
True Right ascension
16h 35m 45s
True Declination
0° 00' 00"
Sunlit
Object was in daylight at epoch
Visualization orbit readout
Latitude
Unknown
Longitude
Unknown
Altitude
Unknown
Speed
Unknown
Apparent Right ascension
Unknown
Apparent Declination
Unknown
Sunlit
N/A
Visualization observer readout
Local Sidereal Time
14:53:03
Azimuth
Unknown
Elevation
Unknown
Doppler factor
Unknown
Orbital elements
Apogee altitude
975.627 km
Perigee altitude
881.797 km
Semi-major axis
7,306.849 km
Eccentricity
0.00642
Inclination
82.9001°
RAAN
248.9391°
Arg. of periapsis
152.5642°
True anomaly
207.55192°
Mean anomaly
207.8937°
Eccentric anomaly
207.72257°
Mean motion
3.47495 °/min
Orbital period
103.6 mins
BSTAR
0.00088887
Loading maneuver chart data...
Computing Atmospheric mass density...
Loading historical data...
Loading historical data...
Loading historical data...
Loading historical data...
Loading historical data...
Loading historical data...
Loading historical data...

Documentation

Showing up to 5 results
|